Mombasa, Kenya

2:41 PM EAT on February 28, 2017 (GMT +0300)
Moi

Weather History for HKMO - October, 2012

Change the Weather History Date:

Sunday, October 21, 2012

  Actual Average Record
Temperature  
Mean Temperature 80 °F -  
Max Temperature 86 °F 88 °F 87 °F (2008)
Min Temperature 73 °F 71 °F 69 °F (2000)
Cooling Degree Days 14    
Growing Degree Days 30 (Base 50)    
Moisture  
Dew Point 72 °F    
Average Humidity 75    
Maximum Humidity 94    
Minimum Humidity 53    
Precipitation  
Precipitation 0.00 in 0.14 in - ()
Sea Level Pressure  
Sea Level Pressure 29.91 in    
Wind  
Wind Speed 4 mph ()    
Max Wind Speed 14 mph    
Max Gust Speed -    
Visibility 8.2 miles    
Events      
Averages and records for this station are not official NWS values.
T = Trace of Precipitation, MM = Missing Value Source: Averaged Metar Reports

Daily Weather History Graph

Daily Weather History Graph

Search for Another Location

Airport or City:

Trip Planner

Search our weather history database for the weather conditions in past years. The results will help you decide how hot, cold, wet, or windy it might be!

Date:

Astronomy

Oct. 21, 2012 Rise Set
Actual Time 5:59 AM EAT 6:12 PM EAT
Civil Twilight 5:38 AM EAT 6:33 PM EAT
Nautical Twilight 5:13 AM EAT 6:58 PM EAT
Astronomical Twilight 4:49 AM EAT 7:22 PM EAT
Moon 11:32 AM EAT (10/21) No Moon Set
Length of Visible Light 12h 55m
Length of Day
12h 12m
Waxing Crescent, 41% of the Moon is Illuminated
Oct 21
Waxing Crescent
Oct 22
First Quarter
Oct 29
Full
Nov 7
Last Quarter
Nov 14
New

Hourly Weather History & Observations

Time (EAT) Temp. Heat Index Dew Point Humidity Pressure Visibility Wind Dir Wind Speed Gust Speed Precip Events Conditions
12:00 AM 78.8 °F - 73.4 °F 83% 29.92 in 6.2 mi SE 3.5 mph - N/A   Scattered Clouds
1:00 AM 77.0 °F - 73.4 °F 89% 29.89 in 6.2 mi SE 3.5 mph - N/A   Scattered Clouds
2:00 AM 77.0 °F - 71.6 °F 83% 29.89 in 6.2 mi Calm Calm - N/A   Partly Cloudy
3:00 AM 75 °F - 72 °F 89% 29.89 in 19 mi Calm Calm - -   Scattered Clouds
4:00 AM 75.2 °F - 73.4 °F 94% 29.89 in 6.2 mi Calm Calm - N/A   Partly Cloudy
5:00 AM 75.2 °F - 71.6 °F 89% 29.92 in 6.2 mi Calm Calm - N/A   Partly Cloudy
6:00 AM 75.2 °F - 71.6 °F 89% 29.92 in 6.2 mi West 4.6 mph - N/A   Partly Cloudy
7:00 AM 75.2 °F - 73.4 °F 94% 29.95 in 6.2 mi West 4.6 mph - N/A   Partly Cloudy
8:00 AM 78.8 °F - 73.4 °F 83% 29.98 in 6.2 mi West 4.6 mph - N/A   Partly Cloudy
9:00 AM 81 °F - 73 °F 70% 29.98 in 19 mi Calm Calm - -   Partly Cloudy
9:00 AM 80.6 °F 85.4 °F 73.4 °F 79% 29.98 in 6.2 mi Calm Calm - N/A   Scattered Clouds
10:00 AM 82.4 °F 87.2 °F 71.6 °F 70% 29.98 in 6.2 mi SW 4.6 mph - N/A   Mostly Cloudy
11:00 AM 86.0 °F 90.4 °F 69.8 °F 58% 29.95 in 6.2 mi SE 9.2 mph - N/A   Mostly Cloudy
12:00 PM 86.0 °F 89.4 °F 68.0 °F 55% 29.92 in 6.2 mi SSE 9.2 mph - N/A   Scattered Clouds
1:00 PM 84.2 °F 88.4 °F 69.8 °F 62% 29.89 in 6.2 mi SE 11.5 mph - N/A   Scattered Clouds
2:00 PM 84.2 °F 88.4 °F 69.8 °F 62% 29.86 in 6.2 mi SE 11.5 mph - N/A   Partly Cloudy
3:00 PM 83 °F - 69 °F 53% 29.86 in 19 mi SE 13.8 mph - -   Scattered Clouds
3:00 PM 84.2 °F 88.4 °F 69.8 °F 62% 29.86 in 6.2 mi SE 13.8 mph - N/A   Partly Cloudy
4:00 PM 84.2 °F 89.6 °F 71.6 °F 66% 29.86 in 6.2 mi SE 11.5 mph - N/A   Partly Cloudy
5:00 PM 82.4 °F 87.2 °F 71.6 °F 70% 29.86 in 6.2 mi SSE 11.5 mph - N/A   Partly Cloudy
6:00 PM 80.6 °F 83.9 °F 69.8 °F 70% 29.89 in 6.2 mi SE 11.5 mph - N/A   Partly Cloudy
7:00 PM 78.8 °F - 71.6 °F 78% 29.89 in 6.2 mi South 6.9 mph - N/A   Partly Cloudy
8:00 PM 78.8 °F - 71.6 °F 78% 29.89 in 6.2 mi South 4.6 mph - N/A   Partly Cloudy
9:00 PM 78 °F - 72 °F 78% 29.91 in 19 mi South 5.8 mph - -   Scattered Clouds
9:00 PM 78.8 °F - 71.6 °F 78% 29.92 in 6.2 mi South 5.8 mph - N/A   Partly Cloudy
11:00 PM 78.8 °F - 71.6 °F 78% 29.92 in 6.2 mi SSE 5.8 mph - N/A   Partly Cloudy